Regional Weather Roundup
Issued by NWS Goodland, KS

Home | Current Version | Previous Version | Graphics & Text | Print | Product List | Glossary On
Versions: 1 2 3 4 5 6 7 8 9 10 11 12 13 14 15 16 17 18 19 20 21 22 23 24 25 26 27 28 29 30 31 32 33 34 35 36 37 38 39 40 41 42 43 44 45 46 47 48 49 50
000
ASUS43 KGLD 292108
RWRGLD

GOODLAND FORECAST AREA HOURLY WEATHER ROUNDUP
NATIONAL WEATHER SERVICE GOODLAND KS
300 PM MDT SAT AUG 29 2015

...OFFICIAL OBSERVATIONS...

CITY           SKY/WX    TMP DP  RH WIND       PRES   REMARKS
GOODLAND KS    FAIR      90  42  18 SW9       30.13F
HILL CITY KS   FAIR      91  54  28 E7        30.07F
IMPERIAL NEB   FAIR      92  46  20 VRB6      30.09F
MCCOOK NEB     FAIR      92  45  19 SE5       30.07F
AKRON CO       FAIR      90  38  16 SE13      30.16F
BURLINGTON CO  FAIR      86  44  23 S8        30.17F
LIMON CO       FAIR      82  44  26 S12       30.23F
$$

...UNOFFICIAL OBSERVATIONS...

CITY           SKY/WX    TMP DP  RH WIND       PRES   REMARKS
COLBY KS       SUNNY     93  48  21 E8        30.12F
GOVE KS          N/A     91  32  12 MISG        N/A
LENORA KS        N/A     88  32  13 MISG        N/A
NORTON KS      SUNNY     88  52  29 E7        30.07
SHARON SPRINGS   N/A     91  46  20 S5          N/A
YUMA CO          N/A     90  46  21 CALM        N/A
$$


USA.gov is the U.S. government's official web portal to all federal, state and local government web resources and services.